Wind_Speed
79 87 93 91 92 88 87 86 83 81 81 78 74 72 70 67 64 62 57 54 51 50 48 45 41 39 35 32 32 31 31 27 23 24 21 21 20 20 20 20 23 21 20 23 23
72 86 92 95 96 96 89 88 86 85 84 79 80 76 74 72 69 66 62 59 56 55 50 47 41 39 38 36 34 35 34 29 25 25 24 24 23 23 23 25 25 24 24 25 24
61 74 89 92 97 99 97 89 89 88 88 78 84 82 78 77 74 70 68 64 62 59 56 53 48 44 40 38 38 37 34 32 29 29 28 28 27 26 27 27 25 25 26 25 23
18 66 81 94 95 98 101 97 93 90 92 83 87 86 83 80 79 75 73 69 67 64 60 58 54 48 46 42 40 41 38 35 32 32 32 31 31 31 28 27 26 26 26 27 26
17 22 58 88 96 98 102 102 101 101 93 91 92 89 85 85 83 81 78 75 72 69 65 61 59 54 50 47 44 43 42 40 38 35 34 35 33 33 31 29 29 28 28 30 30
42 32 23 57 88 100 102 104 103 105 101 99 94 92 88 89 89 84 83 80 77 74 70 67 64 61 55 53 49 48 47 44 44 40 38 37 36 36 34 35 34 33 30 32 32
65 39 36 34 42 85 103 104 105 106 107 104 100 95 94 93 90 90 88 85 82 80 76 73 70 66 63 58 54 54 49 50 46 46 44 40 41 40 40 39 38 37 35 34 34
72 60 55 42 46 41 72 105 106 105 110 109 105 105 99 95 93 90 92 91 86 84 82 79 75 71 68 63 62 57 54 52 54 47 47 42 44 39 39 38 38 36 37 35 35
81 72 66 57 53 58 44 66 107 110 112 114 109 106 107 104 100 94 91 93 91 86 87 83 80 76 72 68 66 62 59 59 59 53 49 47 47 42 40 38 37 39 37 35 40
88 85 84 80 66 60 64 55 73 111 113 112 112 109 108 108 110 108 99 93 93 91 90 86 84 80 76 74 71 71 66 65 63 60 53 52 53 47 45 44 43 42 41 42 41
93 91 90 89 88 85 71 58 55 66 114 118 113 115 117 114 113 110 110 105 97 87 89 91 87 82 85 82 78 75 73 68 67 65 61 59 57 52 46 46 48 47 44 44 41
102 100 99 98 95 96 88 64 68 60 78 110 125 121 116 121 118 115 113 112 107 97 96 89 83 92 90 87 81 78 75 74 72 70 66 64 62 59 50 46 47 48 47 49 49
109 108 104 104 101 100 97 90 83 75 71 84 110 125 121 117 123 123 115 116 113 111 104 97 89 92 93 91 85 83 79 78 78 75 72 68 65 64 58 52 50 50 49 48 48
114 113 112 111 110 104 100 99 97 95 91 75 87 110 124 121 120 117 116 116 112 110 110 106 99 95 91 88 88 86 86 84 81 80 75 73 66 68 64 58 58 58 56 54 55
122 120 116 118 112 109 103 106 107 108 103 77 75 88 107 124 118 121 121 120 116 114 114 104 103 105 101 95 93 87 90 88 86 84 79 74 72 69 71 67 64 62 61 59 57
130 128 124 122 117 111 110 114 116 124 110 82 68 78 86 108 123 124 125 121 121 119 118 114 110 106 106 104 98 91 91 89 88 85 82 78 77 68 75 73 68 66 64 63 61
142 137 135 131 123 120 119 125 133 132 110 92 76 67 81 90 115 126 125 125 121 124 121 118 116 112 108 109 107 97 96 94 92 87 78 80 82 68 77 77 73 69 66 64 64
150 149 144 141 133 130 132 138 145 129 114 89 90 81 83 91 96 116 132 129 130 124 121 121 118 114 113 110 108 108 104 98 97 91 84 85 80 73 76 77 75 71 68 68 70
158 157 155 148 142 139 144 148 145 133 112 102 92 97 88 90 93 94 117 127 126 130 124 120 117 118 116 115 115 111 106 105 105 101 93 90 82 80 78 79 79 78 76 75 75
149 152 150 149 149 150 154 153 152 132 123 109 99 101 95 89 97 86 100 114 119 122 128 127 120 117 119 121 119 114 111 110 107 100 93 87 81 78 80 85 84 83 82 79 76
125 134 124 135 143 152 156 148 145 130 128 122 106 103 104 95 97 96 87 103 114 117 126 128 131 121 116 115 115 116 115 114 110 106 98 93 89 86 85 84 83 83 83 79 77
113 114 111 122 133 135 136 132 130 122 129 125 114 107 101 94 100 99 89 94 109 115 120 128 128 132 126 120 115 114 114 114 113 107 105 102 93 91 87 87 86 87 86 84 80
104 104 112 120 124 122 119 122 119 117 119 124 121 112 103 100 105 106 93 98 107 117 118 123 132 126 131 134 126 116 112 112 111 109 110 107 91 92 90 89 89 90 90 87 84
95 98 108 114 111 115 117 116 114 110 110 120 118 111 107 105 104 104 96 100 104 112 121 125 128 129 126 125 127 128 122 117 116 114 108 107 97 97 96 93 92 90 89 86 83
86 90 92 98 100 108 113 110 107 108 108 112 116 114 110 103 103 104 103 105 105 107 118 123 125 123 126 121 118 120 120 120 116 111 115 105 104 99 98 98 95 91 88 84 82
79 82 88 90 94 103 107 106 103 108 109 105 110 110 108 104 106 100 99 104 107 107 108 119 120 119 120 123 120 116 116 115 116 112 112 106 100 98 98 93 89 87 87 86 86
75 80 80 85 92 97 91 94 98 103 103 100 102 111 107 104 104 102 104 104 108 108 108 109 118 119 118 115 121 123 115 113 110 107 103 104 96 99 98 97 95 92 90 86 84
Wind_Direction
225 222 218 218 221 221 227 224 227 225 227 226 227 226 226 229 232 234 233 237 237 238 243 243 242 243 246 242 243 248 256 262 262 266 269 279 285 290 295 304 306 311 312 314 315
228 224 225 224 220 223 224 226 229 228 227 228 229 228 227 228 231 233 235 235 238 241 244 242 246 244 246 246 247 245 252 260 264 268 271 274 284 288 295 298 300 308 310 313 320
234 230 228 227 224 223 225 223 230 228 229 232 235 229 228 229 230 232 233 236 238 239 242 243 246 244 246 246 247 248 251 255 258 267 270 275 280 284 289 290 292 297 300 307 312
266 235 229 228 229 226 226 226 223 232 228 233 233 233 231 232 231 231 233 233 237 239 241 243 244 244 242 246 251 252 252 254 258 263 268 272 276 280 281 284 289 292 294 302 302
264 244 239 233 231 230 227 226 226 225 230 233 233 233 236 235 234 232 232 234 235 238 239 241 244 244 243 243 250 253 255 256 257 261 265 271 274 276 278 280 283 290 291 296 298
291 277 269 244 234 230 231 228 229 228 227 230 236 231 235 239 237 236 233 234 235 236 237 240 242 245 245 245 246 251 252 257 257 257 260 266 270 272 274 277 282 287 287 288 291
291 273 275 265 252 237 233 232 231 232 230 229 231 235 237 235 240 239 237 234 236 237 237 238 240 241 246 246 248 250 252 257 258 258 259 261 266 273 274 279 281 285 287 289 288
291 285 275 265 270 268 243 234 232 233 233 232 231 234 235 236 237 240 242 239 235 236 238 237 239 240 243 246 249 248 251 251 254 256 259 257 261 268 274 279 283 287 289 293 294
288 284 280 278 260 279 263 247 234 233 234 235 234 237 233 235 238 238 240 242 241 237 237 237 238 239 241 244 247 249 248 250 252 254 252 254 258 263 270 276 279 285 285 291 294
284 283 285 285 269 265 276 278 243 234 232 233 233 234 236 234 236 238 238 239 242 240 240 239 239 240 241 243 244 246 244 246 252 256 259 256 259 259 262 269 272 277 283 288 291
280 281 280 281 281 281 274 268 256 246 234 233 231 235 235 234 235 237 238 236 237 240 244 244 240 242 241 241 242 245 249 251 252 254 256 258 260 261 261 264 268 272 276 281 284
279 278 277 278 277 278 279 264 257 255 240 232 232 230 233 236 235 237 239 238 238 237 238 243 246 242 243 242 243 244 247 250 252 253 254 255 259 262 260 259 265 268 270 271 276
275 275 274 275 274 276 277 276 270 259 241 235 230 230 230 233 236 237 239 238 237 236 238 239 240 244 246 245 244 246 245 246 249 251 253 254 257 261 262 263 263 262 265 271 277
272 271 272 272 273 273 274 272 268 264 249 236 234 231 229 230 233 237 238 236 236 239 236 237 240 242 245 250 249 247 247 248 249 251 251 254 254 260 262 263 266 269 272 276 279
270 270 269 270 270 270 269 267 266 264 251 232 229 231 230 231 230 234 236 237 238 237 237 238 240 244 240 242 245 247 247 247 249 251 251 254 254 260 262 264 265 269 273 277 282
268 267 266 265 264 264 264 264 262 261 255 233 229 233 234 232 230 231 235 236 237 236 237 238 242 245 246 239 242 244 249 252 253 253 255 257 258 261 266 265 266 268 273 276 280
264 263 263 262 262 260 259 259 258 259 258 236 222 236 234 234 231 230 232 234 236 237 238 240 243 244 243 244 243 240 244 248 251 254 255 256 258 258 262 265 267 270 272 275 276
259 260 259 258 256 255 256 256 257 259 255 248 237 238 236 236 234 230 230 231 233 235 238 239 239 240 240 243 244 242 239 241 245 248 249 250 255 257 259 264 269 270 272 273 276
257 255 255 255 254 251 253 253 257 260 257 254 241 240 232 236 237 237 232 231 232 233 235 236 237 236 239 241 242 243 244 246 247 247 248 250 251 255 259 263 265 268 269 271 275
251 253 252 250 251 249 249 250 252 254 254 249 240 239 230 233 236 234 237 232 233 234 235 234 235 236 237 238 239 242 244 245 249 249 251 253 253 256 258 259 262 265 268 271 272
250 249 249 247 244 245 246 249 250 249 250 249 243 234 235 233 228 234 235 233 233 232 235 235 234 233 235 237 240 241 244 246 247 248 250 252 254 254 254 257 262 265 266 268 272
247 247 246 244 243 244 244 247 248 246 246 245 243 235 233 232 228 228 234 231 233 232 234 235 235 234 233 236 238 240 241 243 246 247 249 250 249 251 254 258 262 264 266 270 271
243 239 238 239 240 243 244 242 243 242 240 240 240 235 232 229 225 223 227 226 231 233 233 234 236 235 236 235 236 239 241 243 245 247 249 251 250 251 252 256 258 260 261 265 270
237 235 234 236 235 237 238 238 239 238 236 236 235 233 233 226 224 221 223 222 229 231 232 234 235 235 236 237 237 238 239 243 246 248 251 253 251 250 251 254 258 260 262 265 267
237 235 235 235 234 236 234 237 234 232 233 232 231 230 228 227 224 220 219 220 224 226 232 233 235 235 236 237 238 239 240 241 243 246 249 251 251 252 254 256 259 263 265 265 267
237 232 229 228 229 230 230 233 231 232 229 229 229 227 225 224 222 221 219 218 223 226 230 231 233 234 236 235 236 239 239 240 244 247 249 250 252 253 254 256 257 258 259 260 260
233 230 227 225 227 229 230 230 230 228 227 226 225 225 224 223 221 218 217 217 220 225 226 229 230 233 235 237 235 236 238 240 242 243 246 247 248 249 251 255 256 256 257 260 264
Height
10645 10656 10665 10672 10682 10689 10698 10706 10714 10720 10727 10732 10739 10746 10753 10759 10764 10770 10775 10780 10783 10786 10790 10794 10797 10802 10803 10806 10809 10812 10813 10815 10817 10818 10818 10818 10819 10820 10819 10818 10818 10818 10818 10818 10818
10637 10646 10654 10661 10667 10676 10684 10693 10702 10708 10715 10721 10727 10734 10741 10747 10753 10759 10766 10771 10775 10779 10783 10787 10790 10795 10797 10800 10803 10805 10808 10810 10812 10812 10813 10814 10815 10815 10816 10816 10815 10815 10814 10814 10814
10626 10635 10643 10649 10658 10664 10670 10679 10688 10695 10702 10709 10716 10721 10728 10734 10741 10749 10754 10760 10765 10770 10775 10779 10783 10787 10791 10794 10796 10799 10801 10804 10806 10807 10807 10808 10809 10810 10812 10812 10812 10812 10811 10811 10810
10617 10622 10627 10636 10643 10652 10659 10664 10670 10680 10687 10694 10701 10708 10715 10722 10728 10735 10742 10747 10754 10759 10765 10769 10774 10779 10783 10788 10790 10792 10796 10797 10800 10801 10802 10803 10805 10806 10807 10808 10808 10808 10807 10806 10806
10605 10610 10615 10619 10628 10635 10643 10651 10657 10662 10672 10679 10686 10694 10702 10709 10716 10723 10730 10735 10741 10748 10754 10759 10765 10770 10776 10779 10783 10785 10789 10791 10794 10795 10796 10797 10800 10800 10802 10803 10803 10803 10803 10802 10801
10593 10597 10600 10605 10610 10617 10624 10633 10642 10648 10656 10664 10671 10679 10688 10694 10703 10710 10716 10722 10729 10735 10742 10747 10754 10760 10767 10771 10775 10777 10783 10785 10787 10788 10790 10792 10793 10795 10797 10796 10798 10798 10799 10797 10796
10577 10582 10587 10591 10598 10601 10607 10614 10624 10632 10639 10646 10655 10664 10673 10675 10687 10695 10700 10708 10715 10722 10729 10735 10742 10750 10755 10761 10766 10768 10775 10778 10779 10781 10783 10786 10788 10789 10789 10792 10791 10792 10793 10792 10791
10556 10563 10570 10576 10579 10583 10587 10595 10602 10609 10620 10631 10638 10648 10657 10660 10671 10679 10686 10693 10699 10708 10716 10723 10729 10738 10744 10751 10754 10758 10765 10769 10769 10774 10776 10782 10780 10784 10785 10785 10786 10786 10786 10787 10786
10538 10543 10546 10554 10558 10565 10570 10575 10582 10591 10600 10611 10621 10633 10638 10645 10653 10660 10669 10676 10685 10693 10700 10709 10717 10726 10732 10738 10742 10748 10753 10754 10758 10765 10769 10775 10773 10777 10780 10780 10780 10780 10780 10780 10780
10518 10522 10522 10527 10535 10541 10548 10556 10558 10567 10576 10587 10599 10609 10623 10625 10632 10641 10649 10659 10668 10676 10687 10696 10705 10715 10722 10725 10729 10729 10735 10741 10749 10755 10761 10764 10764 10771 10772 10774 10773 10773 10773 10773 10773
10496 10498 10503 10506 10506 10513 10521 10534 10544 10545 10552 10559 10571 10579 10590 10600 10608 10620 10631 10641 10651 10663 10674 10679 10693 10708 10696 10703 10713 10719 10726 10732 10737 10743 10749 10752 10754 10760 10766 10765 10765 10766 10766 10765 10766
10467 10471 10476 10478 10486 10486 10497 10512 10514 10521 10520 10526 10540 10554 10569 10580 10588 10598 10613 10622 10633 10645 10653 10667 10687 10676 10679 10690 10701 10708 10716 10720 10722 10728 10735 10742 10744 10749 10758 10758 10757 10758 10759 10758 10758
10438 10440 10448 10450 10455 10464 10473 10482 10483 10483 10490 10501 10515 10533 10549 10559 10567 10581 10594 10603 10614 10624 10637 10649 10663 10656 10668 10678 10689 10696 10703 10702 10707 10714 10724 10730 10736 10736 10746 10750 10748 10749 10751 10751 10750
10408 10413 10416 10419 10431 10441 10448 10446 10448 10444 10448 10484 10498 10512 10524 10534 10547 10561 10573 10584 10595 10608 10613 10627 10644 10647 10659 10669 10676 10684 10685 10687 10695 10701 10713 10717 10728 10726 10733 10740 10739 10737 10739 10741 10741
10373 10377 10385 10386 10399 10412 10422 10410 10411 10401 10402 10464 10482 10492 10503 10513 10537 10540 10545 10558 10575 10583 10592 10618 10620 10626 10639 10650 10652 10666 10667 10673 10680 10688 10698 10708 10716 10719 10721 10726 10728 10729 10730 10730 10732
10336 10343 10349 10353 10372 10390 10387 10373 10369 10348 10368 10439 10464 10479 10484 10494 10505 10514 10521 10537 10550 10560 10576 10590 10603 10611 10624 10628 10634 10650 10654 10660 10666 10674 10690 10697 10700 10720 10706 10709 10715 10719 10721 10721 10722
10290 10303 10307 10315 10343 10349 10349 10332 10313 10316 10372 10410 10449 10462 10466 10463 10472 10483 10497 10515 10526 10538 10558 10572 10584 10594 10604 10608 10616 10631 10637 10640 10649 10660 10683 10681 10681 10711 10694 10694 10702 10707 10710 10710 10710
10244 10247 10262 10278 10299 10309 10303 10286 10266 10311 10343 10400 10422 10428 10431 10437 10443 10459 10465 10480 10498 10517 10535 10545 10557 10574 10584 10589 10597 10603 10606 10619 10626 10640 10657 10660 10676 10691 10687 10685 10686 10693 10696 10697 10697
10194 10196 10209 10233 10253 10266 10249 10238 10248 10290 10337 10368 10389 10381 10397 10416 10423 10432 10444 10459 10474 10493 10506 10518 10533 10548 10560 10565 10570 10583 10593 10602 10606 10622 10636 10649 10668 10674 10677 10675 10674 10676 10680 10682 10683
10133 10141 10168 10189 10199 10203 10191 10206 10217 10266 10300 10322 10347 10359 10375 10395 10396 10410 10420 10442 10457 10476 10478 10495 10507 10522 10530 10538 10546 10564 10573 10575 10589 10606 10621 10639 10653 10663 10662 10654 10658 10663 10666 10667 10669
10088 10089 10131 10138 10142 10133 10141 10177 10194 10239 10260 10278 10312 10327 10344 10357 10377 10383 10401 10413 10425 10444 10448 10464 10478 10496 10504 10518 10533 10542 10554 10562 10571 10585 10604 10620 10637 10645 10642 10641 10644 10646 10649 10653 10657
10042 10062 10086 10082 10080 10098 10118 10144 10172 10207 10218 10240 10267 10289 10318 10338 10348 10361 10377 10394 10396 10409 10420 10433 10447 10463 10482 10492 10504 10517 10531 10538 10546 10568 10579 10591 10615 10623 10627 10629 10631 10630 10633 10638 10643
10003 10026 10032 10035 10047 10072 10094 10111 10134 10165 10184 10201 10224 10254 10284 10306 10318 10338 10354 10366 10371 10381 10393 10409 10419 10440 10454 10468 10486 10501 10513 10520 10529 10542 10554 10566 10608 10605 10612 10611 10611 10612 10615 10621 10630
9965 9982 9990 10000 10031 10042 10057 10080 10101 10132 10153 10165 10193 10222 10249 10270 10289 10311 10327 10342 10347 10358 10362 10371 10390 10416 10432 10450 10463 10475 10490 10498 10505 10514 10542 10550 10578 10583 10588 10592 10593 10595 10601 10608 10614
9941 9954 9970 9985 10006 10017 10029 10047 10078 10097 10114 10134 10157 10182 10212 10236 10263 10278 10297 10312 10318 10332 10337 10352 10372 10396 10408 10427 10438 10451 10466 10474 10482 10504 10507 10544 10547 10560 10568 10569 10578 10585 10588 10593 10598
9910 9930 9942 9960 9976 9984 9999 10024 10049 10067 10084 10111 10133 10161 10185 10209 10235 10263 10283 10290 10300 10311 10322 10335 10352 10372 10380 10400 10414 10427 10439 10452 10470 10484 10497 10520 10533 10539 10543 10553 10562 10566 10568 10574 10578
9889 9902 9922 9936 9946 9959 9988 10009 10025 10042 10067 10092 10119 10130 10158 10187 10211 10235 10250 10260 10271 10283 10299 10310 10327 10345 10361 10376 10385 10394 10428 10434 10447 10460 10478 10491 10510 10508 10517 10529 10537 10541 10550 10558 10565